Point Salines, Grenada

8:14 AM AST on November 22, 2017 (GMT -0400)
Point Salines International

Weather History for TGPY - May, 2013

Change the Weather History Date:

Wednesday, May 22, 2013

  Actual Average Record
Temperature  
Mean Temperature 82 °F -  
Max Temperature 86 °F 84 °F 89 °F (2017)
Min Temperature 78 °F 76 °F 76 °F (2016)
Cooling Degree Days 17    
Growing Degree Days 32 (Base 50)    
Moisture  
Dew Point 75 °F    
Average Humidity 79    
Maximum Humidity 94    
Minimum Humidity 67    
Precipitation  
Precipitation 0.04 in - - ()
Sea Level Pressure  
Sea Level Pressure 29.92 in    
Wind  
Wind Speed 15 mph ()    
Max Wind Speed 23 mph    
Max Gust Speed -    
Visibility 6.7 miles    
Events Rain    
Averages and records for this station are not official NWS values.
T = Trace of Precipitation, MM = Missing Value Source: Averaged Metar Reports

Daily Weather History Graph

Daily Weather History Graph

Search for Another Location

Airport or City:

Trip Planner

Search our weather history database for the weather conditions in past years. The results will help you decide how hot, cold, wet, or windy it might be!

Date:

Astronomy

May. 22, 2013 Rise Set
Actual Time 5:41 AM AST 6:25 PM AST
Civil Twilight 5:19 AM AST 6:48 PM AST
Nautical Twilight 4:52 AM AST 7:15 PM AST
Astronomical Twilight 4:25 AM AST 7:42 PM AST
Moon 4:04 PM AST 3:15 AM AST
Length of Visible Light 13h 29m
Length of Day
12h 43m
Waxing Gibbous, 91% of the Moon is Illuminated
May 22
Waxing Gibbous
May 25
Full
May 31
Last Quarter
Jun 8
New
Jun 16
First Quarter

Hourly Weather History & Observations

Time (AST) Temp. Heat Index Dew Point Humidity Pressure Visibility Wind Dir Wind Speed Gust Speed Precip Events Conditions
12:00 AM 80.6 °F 86.2 °F 75.2 °F 84% 29.92 in 6.2 mi ESE 13.8 mph - N/A   Mostly Cloudy
1:00 AM 80.6 °F 86.2 °F 75.2 °F 84% 29.92 in 6.2 mi East 15.0 mph - N/A   Mostly Cloudy
2:00 AM 81 °F - 75 °F 76% 29.91 in 8 mi ESE 17.3 mph - -   Widespread Dust
2:00 AM 80.6 °F 86.2 °F 75.2 °F 84% 29.89 in 6.2 mi ESE 17.3 mph - N/A   Mostly Cloudy
3:00 AM 80.6 °F 85.4 °F 73.4 °F 79% 29.89 in 6.2 mi ESE 17.3 mph - N/A   Mostly Cloudy
4:00 AM 80.6 °F 86.2 °F 75.2 °F 84% 29.89 in 6.2 mi East 16.1 mph - N/A   Mostly Cloudy
5:00 AM 81 °F - 73 °F 71% 29.90 in 9 mi ESE 18.4 mph - -   Widespread Dust
5:00 AM 80.6 °F 85.4 °F 73.4 °F 79% 29.89 in 6.2 mi ESE 18.4 mph - N/A   Mostly Cloudy
6:00 AM 80.6 °F 85.4 °F 73.4 °F 79% 29.92 in 6.2 mi ESE 11.5 mph - N/A   Mostly Cloudy
7:00 AM 82.4 °F 88.2 °F 73.4 °F 74% 29.92 in 6.2 mi ESE 17.3 mph - N/A   Mostly Cloudy
8:00 AM 83 °F - - % 30.24 in 10 mi SE 15.0 mph - -  
8:00 AM 84.2 °F 92.3 °F 75.2 °F 74% 29.92 in 6.2 mi SE 15.0 mph - N/A   Mostly Cloudy
9:00 AM 84.2 °F 92.3 °F 75.2 °F 74% 29.95 in 6.2 mi ESE 16.1 mph - N/A   Mostly Cloudy
10:00 AM 84.2 °F 92.3 °F 75.2 °F 74% 29.95 in 6.2 mi SE 13.8 mph - N/A   Mostly Cloudy
11:00 AM 83 °F - 76 °F 74% 29.94 in 11 mi SE 15.0 mph - -   Widespread Dust
11:00 AM 84.2 °F 94.1 °F 77.0 °F 79% 29.92 in 6.2 mi SE 15.0 mph - N/A   Mostly Cloudy
12:00 PM 86.0 °F 95.1 °F 75.2 °F 70% 29.92 in 6.2 mi ESE 18.4 mph - N/A   Mostly Cloudy
1:00 PM 86.0 °F 95.1 °F 75.2 °F 70% 29.92 in 6.2 mi SE 16.1 mph - N/A   Mostly Cloudy
2:00 PM 85 °F - 76 °F 67% 29.90 in 11 mi SE 18.4 mph - -   Widespread Dust
2:00 PM 86.0 °F 95.1 °F 75.2 °F 70% 29.89 in 6.2 mi SE 18.4 mph - N/A   Mostly Cloudy
3:00 PM 84.2 °F 92.3 °F 75.2 °F 74% 29.89 in 6.2 mi SE 17.3 mph - N/A   Mostly Cloudy
4:00 PM 84.2 °F 92.3 °F 75.2 °F 74% 29.86 in 6.2 mi ESE 16.1 mph - N/A   Mostly Cloudy
5:00 PM 83 °F - 76 °F 74% 29.88 in 7 mi ESE 18.4 mph - -   Mostly Cloudy
5:00 PM 82.4 °F 90.9 °F 77.0 °F 84% 29.86 in 6.2 mi ESE 18.4 mph - N/A   Mostly Cloudy
6:00 PM 82.4 °F 89.5 °F 75.2 °F 79% 29.89 in 6.2 mi East 16.1 mph - N/A   Mostly Cloudy
7:00 PM 78.8 °F - 75.2 °F 89% 29.89 in 4.3 mi ESE 23.0 mph - N/A Rain Light Rain Showers
8:00 PM 78 °F - 76 °F 91% 29.92 in 7 mi East 16.1 mph - -   Mostly Cloudy
8:00 PM 78.8 °F - 75.2 °F 89% 29.92 in 6.2 mi East 16.1 mph - N/A   Mostly Cloudy
9:00 PM 80.6 °F 87.1 °F 77.0 °F 89% 29.95 in 6.2 mi ESE 16.1 mph - N/A   Scattered Clouds
10:00 PM 78.8 °F - 77.0 °F 94% 29.95 in 5.0 mi SE 20.7 mph - N/A Rain Light Rain Showers
11:00 PM 80 °F - 76 °F 82% 29.96 in 7 mi SE 17.3 mph - - Rain Light Rain Showers
11:00 PM 80.6 °F 86.2 °F 75.2 °F 84% 29.95 in 6.2 mi SE 17.3 mph - N/A   Mostly Cloudy